Location: Pinon Hills
(34.4429°N, 117.6403°W)
Time: 03:52:33
(UTC-07:00)

Daily predictions for brighter satellites

Satellite Brightness Start Highest point End
(mag) Time Altitude Azimuth Time Altitude Azimuth Time Altitude Azimuth
Mayak 1.7 00:03:19 10° NNE 00:03:28 11° NNE 00:03:28 11° NNE
Cosmos 2227 Rocket 3.4 00:14:11 10° N 00:17:54 38° NNE 00:17:54 38° NNE
CZ-2C R/B 4.0 00:20:31 10° N 00:23:35 35° N 00:23:35 35° N
Cosmos 1980 Rocket 4.1 00:45:27 22° NE 00:45:27 22° NE 00:47:38 10° NE
CZ-4C R/B 4.5 00:42:08 10° N 00:48:05 27° NE 00:51:52 19° E
Cosmos 1697 Rocket 3.9 01:12:39 37° N 01:12:39 37° N 01:16:05 10° NNE
Cosmos 2297 Rocket 3.7 01:09:01 10° NNW 01:11:50 30° NW 01:11:50 30° NW
SL-16 R/B 4.1 01:26:08 21° ENE 01:26:08 21° ENE 01:28:40 10° NE
Cosmos 2322 Rocket 3.9 01:35:01 26° ENE 01:35:01 26° ENE 01:38:03 10° NE
Mayak 1.7 01:39:49 10° NNW 01:40:07 11° NNW 01:40:07 11° NNW
USA 234 3.3 01:49:52 10° NE 01:55:43 72° NNE 01:55:43 72° NNE
Resurs 1-4 Rocket 4.2 01:58:34 10° NE 02:01:28 17° E 02:01:28 17° E
ATLAS 2AS CENTAUR R/B 4.2 02:14:19 26° ESE 02:15:09 27° ESE 02:21:31 10° NE
NPP 4.4 02:13:38 10° NNE 02:17:47 47° ENE 02:17:47 47° ENE
ADEOS Rocket 3.4 02:13:06 10° NNE 02:18:30 52° ENE 02:18:30 52° ENE
NOSS 3-1 (A) 3.8 02:20:54 55° NNW 02:20:54 55° NNW 02:26:21 10° NNE
CZ-2D R/B 3.7 02:17:38 10° NE 02:22:06 28° E 02:22:06 28° E
Cosmos 2263 Rocket 3.6 02:17:20 10° N 02:22:29 34° ENE 02:24:05 29° E
Cosmos 2360 Rocket 3.3 02:25:56 35° E 02:25:56 35° E 02:30:25 10° NE
Cosmos 1980 Rocket 3.8 02:27:13 25° NW 02:27:13 25° NW 02:31:11 10° N
CZ-4C R/B 2.9 02:29:49 10° NW 02:36:57 70° WSW 02:36:57 70° WSW
Cosmos 2322 4.3 02:48:50 48° ESE 02:48:50 48° ESE 02:54:10 10° NNE
Meteor 1-15 Rocket 4.2 02:54:33 75° E 02:54:33 75° E 03:00:08 10° NNE
ISS -0.2 02:58:17 10° N 02:59:19 11° NNE 03:00:21 10° NE
Iridium 4 Rocket 4.5 02:58:14 41° SE 02:59:38 48° E 03:05:07 10° NNE
UNK 4.3 03:00:24 55° ENE 03:00:24 55° ENE 03:04:50 10° N
NOSS 2-3 (C) 4.2 03:01:30 59° ENE 03:01:30 59° ENE 03:05:56 10° NE
SL-16 R/B 3.2 03:08:00 34° WNW 03:08:00 34° WNW 03:13:01 10° N
Cosmos 44 Rocket 4.3 03:05:08 10° NNW 03:09:39 43° ENE 03:12:31 21° ESE
ADEOS 3.7 03:05:31 10° NNE 03:10:42 62° ESE 03:11:07 60° SE
Cosmos 1302 Rocket 3.9 03:10:53 85° E 03:10:53 85° E 03:16:09 10° NNE
Cosmos 1606 Rocket 4.0 03:12:35 58° N 03:12:35 58° N 03:16:11 10° N
Cosmos 2322 Rocket 3.4 03:16:49 29° WNW 03:16:59 29° WNW 03:21:54 10° N
IRS-1D 3.3 03:13:37 10° NNE 03:18:33 85° WNW 03:18:33 85° WNW
Spot 4 Rocket 3.9 03:14:32 10° N 03:19:43 79° WNW 03:19:49 78° W
SL-16 R/B 2.4 03:25:41 53° S 03:27:14 76° WSW 03:33:32 10° NNW
Centaur D-1AR AC-40 4.3 03:36:41 11° SE 03:36:41 11° SE 03:36:54 10° SE
Cosmos 1825 Rocket 4.3 03:34:25 10° NNW 03:37:40 40° NW 03:37:40 40° NW
NOSS 2-3 (D) 4.0 03:38:57 52° WNW 03:39:23 53° NW 03:44:31 10° NNE
Cosmos 1758 Rocket 3.6 03:35:39 10° NNW 03:39:32 62° WNW 03:39:32 62° WNW
ADEOS II 4.0 03:37:06 10° NE 03:41:21 24° E 03:45:34 10° SSE
Resurs 1-4 Rocket 2.4 03:36:55 10° N 03:41:59 48° WNW 03:42:32 46° W
Cosmos 2184 Rocket 4.3 03:44:55 42° WSW 03:46:02 46° W 03:51:57 10° N
ARIANE 5 R/B 2.8 03:41:38 10° N 03:46:35 50° WNW 03:47:18 47° W
Cosmos 1271 Rocket 2.7 03:46:35 72° SE 03:46:53 78° E 03:50:53 10° N
Cosmos 2237 4.2 03:47:02 49° SW 03:48:26 68° WNW 03:54:07 10° NNE
Cosmos 1992 Rocket 4.4 03:47:27 35° SSE 03:49:29 59° ESE 03:54:35 10° NNE
Cosmos 1184 Rocket 3.3 03:47:29 10° N 03:50:44 55° E 03:50:54 54° E
Cosmos 2228 3.0 03:50:42 61° W 03:50:46 61° W 03:54:59 10° N
UNKNOWN OBJECT B 2.6 03:49:03 10° N 03:52:53 74° WNW 03:53:00 74° W
Intelsat 5-1 Rocket 3.6 03:55:20 27° S 03:55:36 27° SSE 04:02:30 10° ESE
Cosmos 389 Rocket 3.0 03:55:19 48° SE 03:55:52 55° E 03:59:23 10° NNE
Abrixas rocket 4.4 03:57:40 17° SE 03:57:40 17° SE 03:59:51 10° E
CZ-2D R/B 3.1 03:57:25 10° N 04:02:15 32° WNW 04:03:26 29° W
ADEOS Rocket 4.5 03:59:54 10° NNW 04:03:59 19° WNW 04:05:27 17° W
ATLAS 2AS CENTAUR R/B 3.2 04:01:46 31° WSW 04:05:34 60° NW 04:13:36 10° NNE
Cosmos 2263 Rocket 3.2 04:01:28 10° NW 04:05:41 27° W 04:05:41 27° W
Lacrosse 5 4.2 04:03:56 10° SSE 04:06:44 15° ESE 04:09:32 10° E
Aureole 2 Rocket 2.9 04:06:58 40° S 04:08:23 74° ESE 04:12:29 10° NNE
Cosmos 44 3.1 04:04:42 10° NW 04:08:59 51° WSW 04:10:29 35° SSW
Cosmos 2360 Rocket 3.4 04:07:42 23° W 04:09:19 27° WNW 04:14:02 10° N
Cosmos 2058 Rocket 4.0 04:10:45 31° W 04:11:07 31° WNW 04:15:09 10° NNW
COSMOS 2428 2.9 04:09:39 34° SW 04:12:01 60° WNW 04:17:42 10° NNE
OAO 3 Rocket 3.2 04:10:18 30° W 04:12:40 83° N 04:17:36 10° E
Cosmos 2219 Rocket 2.2 04:10:11 28° SSW 04:13:20 82° ESE 04:19:02 10° NNE
Intercosmos 24 3.8 04:13:17 45° SW 04:14:16 67° W 04:18:45 10° N
DELTA 2 R/B (1) 4.0 04:10:47 22° W 04:14:20 58° NNW 04:19:49 10° ENE
Chunghua 1 4.4 04:13:57 44° W 04:15:01 82° N 04:18:44 10° E
Cosmos 2237 Rocket 3.1 04:11:55 14° S 04:16:30 44° ESE 04:21:48 10° NE
SEDSat Delta rocket 3.3 04:16:56 38° SSW 04:17:44 43° SSE 04:21:46 10° E
Cosmos 1486 Rocket 4.5 04:15:08 10° NW 04:20:00 39° W 04:21:56 28° SW
MOZ.5/SAFIR/RUBIN 5/SL-8 4.1 04:18:32 33° SW 04:20:05 44° W 04:24:32 10° NNW
Nadezhda 3 Rocket 4.0 04:14:05 10° NNW 04:20:13 61° W 04:25:17 16° SSW
BREEZE-M DEB (TANK) 3.9 04:19:29 33° SW 04:21:25 84° NW 04:34:06 10° NE
Cosmos 962 Rocket 4.5 04:18:43 25° SSW 04:22:23 62° W 04:28:26 10° N
SL-8 Rocket 4.1 04:16:56 12° S 04:22:50 79° E 04:29:11 10° N
Cosmos 1812 Rocket 3.4 04:20:51 25° S 04:23:22 86° W 04:27:44 10° N
Cosmos 1544 3.0 04:21:46 31° S 04:23:26 88° W 04:27:09 10° N
Cosmos 972 4.3 04:21:08 25° SSW 04:24:05 84° WNW 04:28:58 10° NNE
MOS 1 Rocket 4.5 04:22:11 10° NNW 04:25:42 23° WNW 04:26:37 21° W
Milstar 3 4.4 04:25:29 17° SSW 04:25:44 18° SSW 04:31:41 10° SSE
Cosmos 1844 Rocket 2.8 04:21:26 10° NNW 04:27:08 82° ENE 04:32:48 10° SSE
CZ-4B R/B 4.4 04:21:51 10° NNE 04:27:11 42° E 04:32:25 10° S
Okean O Rocket 2.4 04:26:10 10° NNE 04:30:31 50° E 04:34:50 10° S
Cosmos 2333 Rocket 2.2 04:27:03 21° SSW 04:31:02 88° WNW 04:36:45 10° NNE
SeaSat 1 3.5 04:26:36 10° SE 04:31:18 48° ENE 04:36:03 10° NNW
Cosmos 1354 Rocket 4.0 04:27:25 10° NNW 04:32:39 62° WSW 04:37:52 10° S
Atlas Centaur 2 3.5 04:31:17 12° S 04:33:09 15° SSE 04:35:58 10° ESE
USA 161 1.5 04:33:19 26° S 04:34:50 66° WSW 04:37:49 10° NNW
Cosmos 1766 3.8 04:33:36 29° SW 04:34:58 40° W 04:38:41 10° N
Cosmos 1707 4.2 04:32:45 10° NW 04:35:23 19° W 04:35:23 19° W
Meteor 2-5 Rocket 4.3 04:30:39 10° NNW 04:35:50 38° W 04:39:37 18° SSW
ISS -3.8 04:32:58 10° NW 04:36:14 82° NE 04:39:29 10° SE
Cosmos 1818 4.4 04:34:55 11° S 04:39:54 48° ESE 04:45:07 10° NE
ATLAS 3B R/B 2.8 04:35:48 10° NNW 04:42:29 77° ENE 04:48:56 10° SE
Meteor 1-24 Rocket 3.8 04:38:37 10° NNW 04:43:54 54° W 04:49:20 10° S
GENESIS II 4.2 04:45:11 10° NNW 04:49:07 83° ENE 04:52:58 10° SSE
NOSS 0 Rocket 3.9 04:45:23 14° SSW 04:50:41 75° WNW 04:56:54 10° NNE
CZ-4B DEB 4.4 04:45:21 10° NNE 04:50:56 75° ESE 04:56:28 10° S
Cosmos 2278 Rocket 3.3 04:46:03 10° N 04:51:33 49° ENE 04:57:00 10° SE
Cosmos 1727 Rocket 4.5 04:46:33 10° N 04:52:43 64° E 04:58:48 10° SSE
BREEZE M DEB (TANK) 3.2 04:51:03 10° WNW 04:54:01 64° SW 05:02:11 10° SE
Cosmos 1733 3.9 04:51:14 10° S 04:55:01 57° E 04:58:51 10° NNE
Tiangong 1 2.6 04:56:00 13° S 04:57:43 21° SE 04:59:56 10° E
Cosmos 968 Rocket 3.7 04:54:08 10° NNW 04:59:19 75° ENE 05:04:25 10° SSE
Cosmos 2366 rocket 4.0 04:56:33 10° SSW 05:02:37 67° W 05:08:48 10° N
SL-16 R/B 3.3 04:57:29 10° S 05:02:51 45° ESE 05:08:13 10° NE
Cosmos 1607 4.3 04:57:03 10° NW 05:03:04 43° WSW 05:09:05 10° S
Cosmos 482 Debris 3.5 05:02:43 17° SSW 05:03:57 42° SE 05:06:18 10° ENE
USA 238 DEB 3.9 04:57:00 10° NNW 05:04:09 88° ENE 05:11:19 10° SSE
USA 238 3.9 04:57:07 10° NNW 05:04:15 87° ENE 05:11:26 10° SSE
ERBS 2.4 05:04:13 15° SW 05:07:01 67° NW 05:10:27 10° NE
Cosmos 1674 2.7 05:04:19 10° N 05:08:11 86° E 05:12:02 10° S
DELTA 2 R/B(2) 4.4 05:07:03 13° WNW 05:08:21 31° NNW 05:10:23 10° NE
Cosmos 1340 Rocket 4.4 05:07:22 10° NW 05:09:59 17° W 05:12:17 11° SW
Cosmos 1805 4.3 05:07:36 12° SW 05:10:29 27° WNW 05:13:52 10° NNW
Landsat 4 3.6 05:07:03 10° S 05:10:45 73° WSW 05:14:28 10° NNW
Cosmos 1356 Rocket 3.7 05:09:02 10° NNW 05:12:51 43° W 05:16:38 10° SSW
Cosmos 1339 Rocket 4.5 05:06:54 10° N 05:12:59 87° W 05:19:04 10° S
Okean-O 4.2 05:10:57 10° NNE 05:15:03 37° E 05:19:09 10° SSE
Cosmos 1844 3.9 05:09:50 10° NNW 05:15:13 49° WSW 05:20:38 10° S
Meteor PRIRODA 3.7 05:14:58 10° NNE 05:18:43 89° NW 05:22:26 10° SSW
CZ-2C R/B 4.0 05:14:35 10° SSE 05:19:08 73° ENE 05:23:36 10° N
CZ-4B R/B 4.3 05:16:26 10° NNE 05:20:49 71° E 05:25:00 10° S
ADEOS II 2.9 05:16:22 10° N 05:21:03 34° WNW 05:25:44 10° SW
PSLV R/B 4.3 05:18:16 10° N 05:22:19 37° WNW 05:26:21 10° SW
KORONAS-FOTON 3.9 05:18:58 10° N 05:22:54 88° E 05:26:50 10° S
Cosmos 1408 Rocket 4.2 05:20:36 10° N 05:25:02 63° E 05:29:25 10° SSE
Lacrosse 5 rocket 2.3 05:25:31 10° NNW 05:29:33 55° NE 05:33:50 10° SE
